Location: Bremen
(53.0793°N, 8.8017°E)
Time: 17:34:48
(UTC+02:00)

SR - Pass Details

Date: 22 April 2024
Orbit: 579 x 859 km, 66.7° (Epoch: 26 May)

Event Time Altitude Azimuth Distance (km) Brightness Sun altitude
Exits shadow 01:53:03 21° 111° (ESE) 1,666 ? -24.3°
Drops below altitude 10° 01:56:52 10° 63° (ENE) 2,251 ? -24.2°
Sets 01:59:38 0° 48° (NE) 3,124 ? -24.2°
